Location: Remedello Sotto
(45.2500°N, 10.3667°E)
Time: 04:31:40
(UTC+00:00)

IGS 5A - Pass Details

Date: 03 February 2023
Orbit: 578 x 583 km, 97.5° (Epoch: 27 March)

Event Time Altitude Azimuth Distance (km) Brightness Sun altitude
Exits shadow 18:20:21 43° 42° (NE) 832 3.8 -20.0°
Drops below altitude 10° 18:23:39 10° 359° (N) 1,908 6.0 -20.5°
Sets 18:25:52 0° 353° (N) 2,811 7.0 -20.9°
